QFA299 YMML-YSSY

Flight info

Callsign QFA299
Flight time 1h 8m
Altitude 37000
Route ML H129 DOSEL Y59 RIVET
Aircraft B738/M-SDE2E3FGHIRWXY/LB1

Departure

Time 2026-05-04 08:29
Airport Melbourne Airport (YMML)

Arrival

Time 2026-05-04 09:37
Airport Sydney Kingsford Smith International Airport (YSSY)
Time Latitude Longitude Altitude Speed Heading
2026-05-04 07:59 -37.67144 144.84762 354 ft 0 kts
2026-05-04 08:16 -37.67182 144.84744 358 ft 3 kts 57°
2026-05-04 08:16 -37.67189 144.84721 355 ft 3 kts 82°
2026-05-04 08:16 -37.67191 144.84696 363 ft 3 kts 82°
2026-05-04 08:17 -37.67194 144.84671 362 ft 3 kts 83°
2026-05-04 08:17 -37.67196 144.84646 361 ft 3 kts 85°
2026-05-04 08:17 -37.67197 144.84634 361 ft 0 kts 85°
2026-05-04 08:21 -37.67203 144.84647 359 ft 2 kts 140°
2026-05-04 08:21 -37.67217 144.84640 358 ft 2 kts 234°
2026-05-04 08:22 -37.67217 144.84614 356 ft 4 kts 271°
2026-05-04 08:22 -37.67215 144.84561 358 ft 9 kts 275°
2026-05-04 08:24 -37.67538 144.84124 362 ft 17 kts 171°
2026-05-04 08:24 -37.67657 144.84146 360 ft 17 kts 170°
2026-05-04 08:24 -37.67775 144.84168 356 ft 17 kts 172°
2026-05-04 08:24 -37.67869 144.84137 350 ft 11 kts 253°
2026-05-04 08:25 -37.67872 144.84119 358 ft 0 kts 261°
2026-05-04 08:27 -37.67846 144.83962 355 ft 0 kts 350°
2026-05-04 08:28 -37.67845 144.83962 355 ft 1 kts 350°
2026-05-04 08:28 -37.67615 144.83921 361 ft 72 kts 352°
2026-05-04 08:29 -37.66954 144.83798 382 ft 125 kts 352°
2026-05-04 08:29 -37.65894 144.83630 721 ft 174 kts 353°
2026-05-04 08:29 -37.64609 144.83440 1644 ft 191 kts 349°
2026-05-04 08:31 -37.54151 144.85156 6347 ft 281 kts 21°
2026-05-04 08:33 -37.41653 144.95032 11857 ft 334 kts 51°
2026-05-04 08:33 -37.40327 144.97422 12627 ft 340 kts 51°
2026-05-04 08:35 -37.30431 145.15065 17890 ft 365 kts 50°
2026-05-04 08:35 -37.28965 145.17648 18563 ft 368 kts 50°
2026-05-04 08:35 -37.27464 145.20292 19207 ft 371 kts 50°
2026-05-04 08:35 -37.25959 145.22942 19857 ft 374 kts 50°
2026-05-04 08:37 -37.16693 145.39205 23552 ft 392 kts 49°
2026-05-04 08:37 -37.15098 145.42000 24034 ft 395 kts 49°
2026-05-04 08:37 -37.13524 145.44789 24482 ft 398 kts 49°
2026-05-04 08:38 -37.11919 145.47657 24926 ft 402 kts 48°
2026-05-04 08:38 -37.10270 145.50526 25389 ft 404 kts 47°
2026-05-04 08:38 -37.08636 145.53345 25865 ft 406 kts 46°
2026-05-04 08:40 -36.97140 145.73221 29769 ft 401 kts 42°
2026-05-04 08:40 -36.95512 145.76039 30326 ft 398 kts 42°
2026-05-04 08:40 -36.93884 145.78854 30716 ft 399 kts 41°
2026-05-04 08:41 -36.92246 145.81672 30972 ft 403 kts 42°
2026-05-04 08:41 -36.90578 145.84537 31101 ft 411 kts 42°
2026-05-04 08:41 -36.88895 145.87422 31230 ft 418 kts 43°
2026-05-04 08:41 -36.87166 145.90392 31426 ft 423 kts 43°
2026-05-04 08:42 -36.85446 145.93351 31731 ft 425 kts 43°
2026-05-04 08:42 -36.83714 145.96339 32169 ft 424 kts 43°
2026-05-04 08:42 -36.81978 145.99337 32599 ft 423 kts 43°
2026-05-04 08:42 -36.80246 146.02316 32926 ft 424 kts 43°
2026-05-04 08:43 -36.78527 146.05262 33239 ft 424 kts 43°
2026-05-04 08:43 -36.76787 146.08246 33690 ft 422 kts 43°
2026-05-04 08:43 -36.75069 146.11188 33998 ft 423 kts 43°
2026-05-04 08:43 -36.73325 146.14164 34179 ft 427 kts 44°
2026-05-04 08:44 -36.71561 146.17172 34370 ft 430 kts 44°
2026-05-04 08:46 -36.56559 146.42623 34790 ft 477 kts 45°
2026-05-04 08:46 -36.54602 146.45968 34985 ft 479 kts 45°
2026-05-04 08:46 -36.52648 146.49295 35008 ft 482 kts 45°
2026-05-04 08:47 -36.48673 146.56035 34997 ft 481 kts 45°
2026-05-04 08:47 -36.44737 146.62684 35018 ft 476 kts 45°
2026-05-04 08:48 -36.41468 146.68184 35027 ft 476 kts 45°
2026-05-04 08:48 -36.37537 146.74784 35033 ft 475 kts 45°
2026-05-04 08:49 -36.32952 146.82474 35030 ft 475 kts 45°
2026-05-04 08:50 -36.19822 147.04398 35034 ft 475 kts 44°
2026-05-04 08:51 -36.15889 147.10938 35037 ft 475 kts 44°
2026-05-04 08:51 -36.11952 147.17475 35035 ft 475 kts 44°
2026-05-04 08:52 -36.07994 147.24038 35038 ft 475 kts 44°
2026-05-04 08:52 -36.04040 147.30584 35045 ft 475 kts 44°
2026-05-04 08:54 -35.88214 147.56661 35069 ft 473 kts 44°
2026-05-04 08:55 -35.84275 147.63118 35066 ft 473 kts 44°
2026-05-04 08:55 -35.80324 147.69578 35055 ft 472 kts 44°
2026-05-04 09:01 -35.38491 148.37278 35090 ft 477 kts 43°
2026-05-04 09:01 -35.34464 148.43710 35071 ft 478 kts 42°
2026-05-04 09:02 -35.30424 148.50156 35063 ft 478 kts 43°
2026-05-04 09:02 -35.26362 148.56627 35074 ft 478 kts 43°
2026-05-04 09:03 -35.22314 148.63063 35076 ft 479 kts 43°
2026-05-04 09:03 -35.18202 148.69500 35068 ft 472 kts 37°
2026-05-04 09:03 -35.15824 148.72075 35089 ft 455 kts 26°
2026-05-04 09:04 -35.13254 148.74306 35078 ft 452 kts 24°
2026-05-04 09:04 -35.08006 148.78527 35072 ft 450 kts 22°
2026-05-04 09:05 -35.02754 148.82646 35051 ft 449 kts 22°
2026-05-04 09:05 -34.97503 148.86754 35071 ft 449 kts 22°
2026-05-04 09:06 -34.92249 148.90869 35073 ft 450 kts 22°
2026-05-04 09:08 -34.71128 149.07353 35075 ft 450 kts 22°
2026-05-04 09:08 -34.65867 149.11423 35072 ft 450 kts 22°
2026-05-04 09:09 -34.60674 149.15461 34528 ft 440 kts 22°
2026-05-04 09:09 -34.58090 149.17477 33852 ft 442 kts 22°
2026-05-04 09:09 -34.55480 149.19506 33042 ft 445 kts 22°
2026-05-04 09:09 -34.52893 149.21504 32301 ft 446 kts 22°
2026-05-04 09:10 -34.50255 149.23522 31586 ft 446 kts 22°
2026-05-04 09:10 -34.47606 149.25524 30846 ft 447 kts 22°
2026-05-04 09:10 -34.44960 149.27499 30145 ft 446 kts 22°
2026-05-04 09:10 -34.42313 149.29455 29326 ft 445 kts 22°
2026-05-04 09:11 -34.39693 149.31379 28428 ft 446 kts 22°
2026-05-04 09:11 -34.37027 149.33324 27472 ft 447 kts 22°
2026-05-04 09:11 -34.34348 149.35266 26478 ft 449 kts 22°
2026-05-04 09:11 -34.31647 149.37212 25602 ft 449 kts 22°
2026-05-04 09:12 -34.29011 149.39106 25416 ft 449 kts 22°
2026-05-04 09:12 -34.26304 149.41039 25302 ft 451 kts 22°
2026-05-04 09:14 -34.07559 149.54393 25066 ft 449 kts 23°
2026-05-04 09:14 -34.05074 149.56713 25057 ft 470 kts 40°
2026-05-04 09:14 -34.03283 149.60112 25077 ft 493 kts 60°
2026-05-04 09:14 -34.02482 149.64194 25080 ft 512 kts 81°
2026-05-04 09:15 -34.02800 149.68527 25088 ft 525 kts 101°
2026-05-04 09:15 -34.04236 149.72605 25085 ft 535 kts 121°
2026-05-04 09:15 -34.06508 149.76151 25086 ft 532 kts 131°
2026-05-04 09:15 -34.08866 149.79519 25066 ft 528 kts 127°
2026-05-04 09:17 -34.17525 150.12508 24571 ft 485 kts 77°
2026-05-04 09:18 -34.16748 150.16316 23655 ft 465 kts 62°
2026-05-04 09:18 -34.15536 150.19920 22299 ft 460 kts 60°
2026-05-04 09:18 -34.14366 150.23517 21127 ft 458 kts 64°
2026-05-04 09:18 -34.13401 150.27129 20113 ft 454 kts 68°
2026-05-04 09:19 -34.12610 150.30807 19204 ft 446 kts 71°
2026-05-04 09:19 -34.11942 150.34436 18292 ft 438 kts 73°
2026-05-04 09:19 -34.11330 150.37994 17237 ft 432 kts 73°
2026-05-04 09:19 -34.10730 150.41529 16266 ft 424 kts 73°
2026-05-04 09:20 -34.10138 150.44940 15332 ft 416 kts 73°
2026-05-04 09:20 -34.09537 150.48344 14426 ft 409 kts 73°
2026-05-04 09:20 -34.08942 150.51689 13495 ft 403 kts 73°
2026-05-04 09:20 -34.08302 150.54918 12493 ft 396 kts 71°
2026-05-04 09:21 -34.07598 150.58109 11521 ft 390 kts 70°
2026-05-04 09:21 -34.06897 150.61254 10574 ft 385 kts 71°
2026-05-04 09:21 -34.06221 150.64339 9670 ft 380 kts 71°
2026-05-04 09:21 -34.05557 150.67406 8705 ft 375 kts 71°
2026-05-04 09:22 -34.04905 150.70432 7750 ft 371 kts 71°
2026-05-04 09:22 -34.04255 150.73442 6870 ft 367 kts 71°
2026-05-04 09:22 -34.03639 150.76305 6621 ft 344 kts 70°
2026-05-04 09:22 -34.03053 150.79013 6410 ft 323 kts 70°
2026-05-04 09:23 -34.02472 150.81545 6260 ft 303 kts 69°
2026-05-04 09:23 -34.01906 150.83943 6112 ft 295 kts 68°
2026-05-04 09:23 -34.01331 150.86343 6047 ft 298 kts 68°
2026-05-04 09:23 -34.00761 150.88745 6001 ft 295 kts 68°
2026-05-04 09:25 -33.97057 151.05361 6013 ft 291 kts 70°
2026-05-04 09:25 -33.96705 151.07758 5986 ft 300 kts 86°
2026-05-04 09:26 -33.97161 151.10245 6002 ft 310 kts 113°
2026-05-04 09:26 -33.98408 151.12381 6022 ft 314 kts 130°
2026-05-04 09:26 -33.99901 151.14322 6008 ft 316 kts 132°
2026-05-04 09:26 -34.01422 151.16238 6005 ft 318 kts 132°
2026-05-04 09:27 -34.02963 151.18160 6005 ft 318 kts 133°
2026-05-04 09:27 -34.04493 151.20061 5996 ft 318 kts 133°
2026-05-04 09:27 -34.06037 151.21981 6002 ft 318 kts 133°
2026-05-04 09:27 -34.07579 151.23900 5996 ft 317 kts 133°
2026-05-04 09:28 -34.09097 151.25786 5989 ft 316 kts 133°
2026-05-04 09:28 -34.10631 151.27688 5936 ft 314 kts 133°
2026-05-04 09:28 -34.12145 151.29562 5742 ft 307 kts 133°
2026-05-04 09:28 -34.13747 151.31232 5194 ft 309 kts 150°
2026-05-04 09:29 -34.15762 151.32167 4681 ft 309 kts 166°
2026-05-04 09:29 -34.17833 151.32820 4243 ft 306 kts 167°
2026-05-04 09:29 -34.19884 151.33433 3843 ft 301 kts 168°
2026-05-04 09:29 -34.21919 151.34039 3386 ft 300 kts 168°
2026-05-04 09:30 -34.23908 151.34620 3084 ft 292 kts 168°
2026-05-04 09:30 -34.25855 151.35182 2836 ft 284 kts 167°
2026-05-04 09:30 -34.27788 151.35547 2374 ft 282 kts 185°
2026-05-04 09:30 -34.29642 151.34899 2109 ft 275 kts 215°
2026-05-04 09:31 -34.30980 151.33319 2034 ft 268 kts 244°
2026-05-04 09:31 -34.31514 151.31216 2006 ft 256 kts 274°
2026-05-04 09:31 -34.31145 151.29199 1989 ft 243 kts 303°
2026-05-04 09:31 -34.30008 151.27754 1991 ft 237 kts 332°
2026-05-04 09:32 -34.28467 151.27030 1996 ft 240 kts 343°
2026-05-04 09:32 -34.26850 151.26467 1998 ft 242 kts 345°
2026-05-04 09:34 -34.15377 151.24137 1989 ft 235 kts 348°
2026-05-04 09:34 -34.13799 151.23723 1991 ft 234 kts 349°
2026-05-04 09:34 -34.12197 151.23306 1992 ft 235 kts 349°
2026-05-04 09:34 -34.10581 151.22886 1998 ft 237 kts 348°
2026-05-04 09:35 -34.08981 151.22471 1989 ft 238 kts 349°
2026-05-04 09:35 -34.07898 151.22190 1995 ft 238 kts 349°
2026-05-04 09:35 -34.05821 151.21651 1944 ft 219 kts 349°
2026-05-04 09:35 -34.04830 151.21393 1862 ft 209 kts 348°
2026-05-04 09:37 -33.96310 151.19182 22 ft 65 kts 348°
2026-05-04 09:37 -33.95956 151.19084 28 ft 43 kts 339°
2026-05-04 09:38 -33.95811 151.18966 27 ft 10 kts 319°
2026-05-04 09:38 -33.95752 151.18904 28 ft 12 kts 319°
2026-05-04 09:38 -33.95691 151.18843 26 ft 11 kts 327°
2026-05-04 09:38 -33.95624 151.18806 28 ft 10 kts 339°
2026-05-04 09:39 -33.95553 151.18784 24 ft 11 kts 347°
2026-05-04 09:39 -33.95478 151.18763 21 ft 11 kts 348°
2026-05-04 09:39 -33.95405 151.18744 22 ft 11 kts 348°
2026-05-04 09:39 -33.95335 151.18726 25 ft 10 kts 347°
2026-05-04 09:40 -33.95269 151.18697 27 ft 10 kts 335°
2026-05-04 09:40 -33.95213 151.18649 26 ft 10 kts 319°
2026-05-04 09:40 -33.95163 151.18596 29 ft 9 kts 316°
2026-05-04 09:40 -33.95120 151.18538 26 ft 9 kts 297°
2026-05-04 09:41 -33.95114 151.18464 26 ft 9 kts 260°
2026-05-04 09:42 -33.95171 151.18143 25 ft 0 kts 258°
2026-05-04 09:43 -33.95175 151.18119 25 ft 7 kts 258°
2026-05-04 09:44 -33.95191 151.18021 24 ft 17 kts 271°
2026-05-04 09:44 -33.95086 151.17940 26 ft 21 kts 349°
2026-05-04 09:44 -33.94935 151.17902 21 ft 22 kts 348°
2026-05-04 09:46 -33.94304 151.17726 21 ft 0 kts 345°
2026-05-04 09:49 -33.93872 151.17607 18 ft 0 kts 359°
2026-05-04 09:49 -33.93857 151.17612 19 ft 6 kts 17°
2026-05-04 09:51 -33.93650 151.17614 28 ft 13 kts 281°
2026-05-04 09:51 -33.93627 151.17532 16 ft 1 kts 302°
2026-05-04 09:51 -33.93621 151.17525 15 ft 1 kts 310°